• In Netherlands
  • List of Countries
  • For 7 days
  • Water Temperature
  • Satellite Maps
  • Weather Map
  • Weather Widgets
  • user-avatar
    Login

    Hourly Weather Malanje

    Today, 18 November, Saturday

    Time Temperature Precipitation Wind Pressure Humidity
    00:00 +20°C° 0.9 mm 1 mps 664 mmHg 96%
    01:00 +20°C° 0.9 mm 1 mps 664 mmHg 97%
    02:00 +19°C° 1.3 mm 1 mps 664 mmHg 98%
    03:00 +19°C° 1.3 mm 1 mps 664 mmHg 98%
    04:00 +19°C° 1.3 mm 1 mps 664 mmHg 98%
    05:00 +19°C° 1 mm 1 mps 664 mmHg 98%
    06:00 +20°C° 1 mm 1 mps 664 mmHg 97%
    07:00 +20°C° 1 mm 1 mps 665 mmHg 97%
    08:00 +20°C° 0.6 mm 0 mps 665 mmHg 93%
    09:00 +21°C° 0.6 mm 0 mps 665 mmHg 88%
    10:00 +23°C° 0.6 mm 0 mps 666 mmHg 84%
    11:00 +26°C° 0.3 mm 1 mps 665 mmHg 77%
    12:00 +27°C° 0.3 mm 2 mps 665 mmHg 69%
    13:00 +28°C° 0.3 mm 2 mps 665 mmHg 61%
    14:00 +27°C° 0.6 mm 2 mps 664 mmHg 64%
    15:00 +27°C° 0.6 mm 2 mps 664 mmHg 68%
    16:00 +26°C° 0.6 mm 2 mps 663 mmHg 71%
    17:00 +24°C° 0.4 mm 2 mps 663 mmHg 76%
    18:00 +23°C° 0.4 mm 1 mps 664 mmHg 82%
    19:00 +21°C° 0.4 mm 1 mps 664 mmHg 88%
    20:00 +20°C° 0.1 mm 1 mps 664 mmHg 90%
    21:00 +20°C° 0.1 mm 1 mps 664 mmHg 91%
    22:00 +19°C° 0.1 mm 1 mps 665 mmHg 93%
    23:00 +19°C° 0 mm 1 mps 664 mmHg 93%

    Tomorrow, 19 November, Sunday

    Time Temperature Precipitation Wind Pressure Humidity
    00:00 +17°C° 0 mm 0 mps 664 mmHg 94%
    01:00 +17°C° 0 mm 0 mps 664 mmHg 94%
    02:00 +17°C° 0 mm 0 mps 664 mmHg 94%
    03:00 +17°C° 0 mm 0 mps 663 mmHg 94%
    04:00 +17°C° 0 mm 0 mps 663 mmHg 94%
    05:00 +17°C° 0 mm 0 mps 664 mmHg 93%
    06:00 +18°C° 0 mm 0 mps 664 mmHg 91%
    07:00 +19°C° 0 mm 0 mps 665 mmHg 90%
    08:00 +22°C° 0 mm 1 mps 665 mmHg 82%
    09:00 +24°C° 0 mm 1 mps 666 mmHg 75%
    10:00 +26°C° 0 mm 1 mps 666 mmHg 67%
    11:00 +26°C° 0.7 mm 2 mps 666 mmHg 68%
    12:00 +27°C° 0.7 mm 2 mps 665 mmHg 68%
    13:00 +27°C° 0.7 mm 2 mps 665 mmHg 68%
    14:00 +27°C° 0.5 mm 2 mps 664 mmHg 70%
    15:00 +26°C° 0.5 mm 2 mps 664 mmHg 72%
    16:00 +26°C° 0.5 mm 1 mps 663 mmHg 74%
    17:00 +24°C° 0.1 mm 1 mps 664 mmHg 79%
    18:00 +23°C° 0.1 mm 1 mps 664 mmHg 85%
    19:00 +21°C° 0.1 mm 1 mps 664 mmHg 90%
    20:00 +21°C° 0 mm 1 mps 665 mmHg 92%
    21:00 +20°C° 0 mm 1 mps 665 mmHg 93%
    22:00 +20°C° 0 mm 1 mps 665 mmHg 95%
    23:00 +20°C° 0 mm 1 mps 665 mmHg 96%

    Day after tomorrow, 20 November, Monday

    Time Temperature Precipitation Wind Pressure Humidity
    00:00 +19°C° 0 mm 1 mps 665 mmHg 97%
    01:00 +18°C° 0 mm 2 mps 664 mmHg 98%
    02:00 +19°C° 0 mm 1 mps 664 mmHg 98%
    03:00 +19°C° 0 mm 1 mps 664 mmHg 98%
    04:00 +19°C° 0 mm 1 mps 664 mmHg 98%
    05:00 +19°C° 0.2 mm 1 mps 665 mmHg 97%
    06:00 +20°C° 0.2 mm 1 mps 665 mmHg 96%
    07:00 +20°C° 0.2 mm 1 mps 666 mmHg 95%
    08:00 +22°C° 0.1 mm 1 mps 666 mmHg 90%
    09:00 +23°C° 0.1 mm 1 mps 667 mmHg 84%
    10:00 +25°C° 0.1 mm 1 mps 667 mmHg 79%
    11:00 +26°C° 0.4 mm 1 mps 667 mmHg 75%
    12:00 +27°C° 0.4 mm 1 mps 666 mmHg 70%
    13:00 +28°C° 0.4 mm 1 mps 666 mmHg 66%
    14:00 +27°C° 1.5 mm 1 mps 665 mmHg 73%
    15:00 +26°C° 1.5 mm 1 mps 664 mmHg 80%
    16:00 +25°C° 1.5 mm 2 mps 664 mmHg 86%
    17:00 +24°C° 1 mm 1 mps 664 mmHg 89%
    18:00 +22°C° 1 mm 1 mps 665 mmHg 91%
    19:00 +21°C° 1 mm 1 mps 665 mmHg 94%
    20:00 +21°C° 0 mm 1 mps 665 mmHg 94%
    21:00 +20°C° 0 mm 1 mps 665 mmHg 95%
    22:00 +19°C° 0 mm 2 mps 666 mmHg 95%
    23:00 +20°C° 0 mm 1 mps 665 mmHg 96%

    21 November, Tuesday

    Time Temperature Precipitation Wind Pressure Humidity
    00:00 +19°C° 0 mm 1 mps 665 mmHg 97%
    01:00 +19°C° 0 mm 1 mps 665 mmHg 98%
    02:00 +19°C° 0.1 mm 1 mps 665 mmHg 98%
    03:00 +19°C° 0.1 mm 1 mps 664 mmHg 98%
    04:00 +20°C° 0.1 mm 1 mps 664 mmHg 98%
    05:00 +20°C° 0.3 mm 1 mps 665 mmHg 97%
    06:00 +20°C° 0.3 mm 1 mps 665 mmHg 96%
    07:00 +21°C° 0.3 mm 1 mps 666 mmHg 95%
    08:00 +21°C° 0.6 mm 1 mps 666 mmHg 93%
    09:00 +22°C° 0.6 mm 1 mps 666 mmHg 91%
    10:00 +23°C° 0.6 mm 2 mps 666 mmHg 89%
    11:00 +24°C° 0.2 mm 2 mps 666 mmHg 82%
    12:00 +25°C° 0.2 mm 2 mps 665 mmHg 75%
    13:00 +26°C° 0.2 mm 2 mps 665 mmHg 68%
    14:00 +26°C° 0.2 mm 2 mps 664 mmHg 68%
    15:00 +27°C° 0.2 mm 2 mps 664 mmHg 69%
    16:00 +27°C° 0.2 mm 2 mps 663 mmHg 69%
    17:00 +25°C° 0.6 mm 2 mps 664 mmHg 77%
    18:00 +23°C° 0.6 mm 2 mps 664 mmHg 84%
    19:00 +21°C° 0.6 mm 1 mps 664 mmHg 92%
    20:00 +20°C° 0 mm 1 mps 664 mmHg 93%
    21:00 +20°C° 0 mm 1 mps 665 mmHg 94%
    22:00 +20°C° 0 mm 1 mps 665 mmHg 95%
    23:00 +20°C° 0.3 mm 1 mps 665 mmHg 95%

    22 November, Wednesday

    Time Temperature Precipitation Wind Pressure Humidity
    00:00 +19°C° 0.3 mm 1 mps 664 mmHg 95%
    01:00 +19°C° 0.3 mm 1 mps 664 mmHg 95%
    02:00 +17°C° 0 mm 0 mps 664 mmHg 96%
    03:00 +17°C° 0 mm 0 mps 664 mmHg 96%
    04:00 +17°C° 0 mm 0 mps 663 mmHg 96%
    05:00 +17°C° 0 mm 0 mps 664 mmHg 95%
    06:00 +18°C° 0 mm 0 mps 665 mmHg 93%
    07:00 +19°C° 0 mm 0 mps 665 mmHg 92%
    08:00 +20°C° 0.4 mm 0 mps 666 mmHg 88%
    09:00 +22°C° 0.4 mm 0 mps 666 mmHg 85%
    10:00 +23°C° 0.4 mm 0 mps 666 mmHg 81%
    11:00 +24°C° 1.2 mm 0 mps 666 mmHg 80%
    12:00 +24°C° 1.2 mm 0 mps 665 mmHg 78%
    13:00 +25°C° 1.2 mm 0 mps 664 mmHg 76%
    14:00 +24°C° 1.5 mm 0 mps 664 mmHg 79%
    15:00 +25°C° 1.5 mm 1 mps 663 mmHg 81%
    16:00 +25°C° 1.5 mm 1 mps 663 mmHg 84%
    17:00 +23°C° 0.6 mm 1 mps 663 mmHg 86%
    18:00 +22°C° 0.6 mm 1 mps 664 mmHg 89%
    19:00 +21°C° 0.6 mm 1 mps 664 mmHg 92%
    20:00 +20°C° 0.2 mm 1 mps 664 mmHg 92%
    21:00 +20°C° 0.2 mm 1 mps 664 mmHg 92%
    22:00 +20°C° 0.2 mm 1 mps 664 mmHg 93%
    23:00 +17°C° 0 mm 0 mps 664 mmHg 93%

    23 November, Thursday

    Time Temperature Precipitation Wind Pressure Humidity
    00:00 +17°C° 0 mm 0 mps 663 mmHg 94%
    01:00 +17°C° 0 mm 0 mps 663 mmHg 95%
    02:00 +17°C° 0.1 mm 0 mps 663 mmHg 95%
    03:00 +17°C° 0.1 mm 0 mps 663 mmHg 96%
    04:00 +17°C° 0.1 mm 0 mps 663 mmHg 96%
    05:00 +17°C° 0 mm 0 mps 664 mmHg 95%
    06:00 +18°C° 0 mm 0 mps 664 mmHg 95%
    07:00 +18°C° 0 mm 0 mps 665 mmHg 94%
    08:00 +20°C° 0.3 mm 0 mps 665 mmHg 89%
    09:00 +22°C° 0.3 mm 0 mps 666 mmHg 85%
    10:00 +23°C° 0.3 mm 0 mps 666 mmHg 80%
    11:00 +25°C° 1.1 mm 1 mps 665 mmHg 81%
    12:00 +25°C° 1.1 mm 1 mps 664 mmHg 81%
    13:00 +25°C° 1.1 mm 1 mps 664 mmHg 81%
    14:00 +25°C° 1.1 mm 1 mps 663 mmHg 84%
    15:00 +24°C° 1.1 mm 1 mps 663 mmHg 87%
    16:00 +24°C° 1.1 mm 1 mps 663 mmHg 89%
    17:00 +23°C° 1 mm 1 mps 663 mmHg 91%
    18:00 +22°C° 1 mm 1 mps 664 mmHg 93%
    19:00 +21°C° 1 mm 1 mps 664 mmHg 95%
    20:00 +21°C° 0.5 mm 1 mps 664 mmHg 95%
    21:00 +20°C° 0.5 mm 1 mps 665 mmHg 96%
    22:00 +20°C° 0.5 mm 1 mps 665 mmHg 96%
    23:00 +20°C° 0.2 mm 1 mps 665 mmHg 97%
    Show more